Location: Chisholm
(54.9102°N, 114.1701°W)
Time: 11:03:33
(UTC+00:00)

N. Korean satellite - Pass Details

Date: 02 December 2021
Orbit: 447 x 491 km, 97.3° (Epoch: 23 January)

Event Time Altitude Azimuth Distance (km) Brightness Sun altitude
Rises 12:02:23 0° 26° (NNE) 2,481 10.5 -29.8°
Reaches altitude 10° 12:04:56 10° 46° (NE) 1,595 9.7 -29.5°
Maximum altitude 12:07:20 18° 91° (E) 1,189 9.3 -29.1°
Drops below altitude 10° 12:09:43 10° 136° (SE) 1,578 9.6 -28.8°
Sets 12:12:13 0° 156° (SSE) 2,442 10.4 -28.4°
